Temperature
25 24 23 24 30 31 29 29 29 28 27 26 26 26 26 25 25 23 21 20 19 19 18 18 18 19 19 19 19 18 18 18 18 18 18 18 18 18 18 18 18 18 18 18 18 18 18 18 18
24 24 24 29 31 29 28 29 28 28 27 26 25 25 25 23 22 21 20 19 19 19 18 18 19 19 19 18 18 18 18 18 18 18 18 18 18 18 18 18 18 18 18 18 18 18 18 18 18
25 24 28 32 31 29 28 29 28 27 26 26 26 25 24 22 21 20 20 19 20 19 18 18 19 19 18 18 18 18 18 18 18 18 18 18 18 18 18 18 18 18 18 18 18 18 18 18 18
24 27 31 32 30 30 29 29 28 28 27 26 26 25 23 21 21 20 20 20 20 19 19 18 19 19 18 18 18 18 18 18 18 18 18 18 18 18 18 18 18 18 18 18 18 18 18 18 17
26 31 33 31 30 30 30 29 28 29 27 26 26 25 22 20 20 20 19 20 20 19 19 18 19 18 18 18 18 18 18 18 18 18 18 18 18 18 18 18 18 18 18 18 18 17 17 17 17
31 33 32 31 30 30 30 29 28 28 27 26 26 25 22 20 20 20 20 20 20 19 19 18 19 18 18 18 18 18 18 18 18 18 18 18 18 18 17 18 18 18 17 17 17 17 17 17 17
32 33 32 31 30 30 30 29 29 28 28 26 26 25 22 20 20 20 19 19 20 19 19 18 18 18 18 18 18 18 18 18 18 18 18 18 18 17 17 17 17 17 17 17 17 17 17 17 17
31 34 32 32 31 30 30 29 28 28 27 25 25 26 23 20 19 19 19 19 19 19 19 18 18 18 17 17 18 18 18 18 18 18 18 18 18 18 18 17 17 17 17 17 17 17 17 17 17
31 33 32 32 31 31 30 29 28 27 26 25 25 25 23 20 19 19 19 19 19 18 18 19 18 18 18 18 18 18 18 18 18 18 18 18 17 17 17 17 17 17 17 17 17 17 17 17 17
33 33 32 32 32 31 30 30 28 28 27 26 24 23 21 20 20 20 20 20 19 19 19 18 18 18 18 18 17 17 17 17 17 17 17 17 17 17 17 17 18 17 17 17 17 17 17 17 17
33 33 32 32 31 31 30 30 29 29 29 27 25 22 21 21 20 21 21 20 20 19 19 18 18 18 18 18 18 17 17 17 17 17 17 17 17 17 17 17 17 17 17 17 17 17 17 17 17
33 32 32 32 31 31 31 30 29 29 28 27 25 23 22 21 21 21 21 21 20 19 19 18 18 18 18 18 18 17 17 17 17 17 17 17 17 17 17 17 17 17 17 17 17 17 17 17 17
33 32 32 31 31 31 30 30 29 28 27 26 24 23 23 22 22 21 21 20 19 19 19 19 18 18 18 18 18 18 17 18 17 17 17 17 17 17 17 17 17 17 17 17 17 17 17 17 17
32 32 32 31 31 30 30 30 29 28 26 25 24 24 23 23 22 21 20 20 20 19 19 19 19 19 19 18 18 18 18 18 18 17 17 17 17 17 17 17 17 17 17 17 17 17 17 17 17
31 33 32 32 31 31 31 30 30 28 26 26 25 24 23 22 22 21 21 20 20 20 19 19 19 19 19 18 18 18 18 18 17 17 17 17 17 17 17 17 17 17 17 17 17 17 17 17 17
33 33 32 32 32 31 31 31 30 27 27 26 25 24 23 22 22 21 21 20 20 20 20 20 19 19 19 19 18 18 18 18 18 17 17 17 17 17 18 17 17 17 17 17 17 17 17 17 17
33 33 32 32 32 32 32 31 30 28 27 27 26 25 24 22 22 21 21 20 20 20 20 20 19 19 19 19 18 18 18 18 18 18 18 17 17 17 18 17 17 17 17 17 17 17 17 17 17
32 33 32 32 32 32 32 31 30 28 28 27 26 25 24 23 22 22 21 21 20 20 20 20 20 19 19 18 18 18 18 18 18 18 18 18 18 18 18 18 17 17 17 17 17 17 17 17 17
33 33 32 32 32 32 32 31 31 29 28 28 27 26 25 24 23 22 21 21 21 20 20 20 20 19 19 19 18 18 18 18 18 18 18 18 18 18 18 18 18 18 18 17 17 17 17 17 17
32 32 32 32 31 32 32 32 31 30 29 28 28 26 25 25 24 22 21 21 21 21 20 20 20 20 19 19 19 18 18 18 18 18 18 18 18 18 18 18 18 18 18 17 17 17 17 17 17
32 32 32 32 31 32 32 32 31 30 29 28 28 27 27 26 25 23 22 22 21 21 21 20 20 20 20 19 19 18 18 18 18 18 18 18 18 18 18 18 18 18 18 17 17 17 17 17 17
32 32 32 32 32 32 32 32 32 31 30 30 28 28 27 26 25 24 23 22 22 21 21 21 21 20 20 19 19 19 18 18 18 18 18 18 18 18 18 18 18 18 17 18 17 17 17 17 17
32 32 32 32 32 32 32 32 32 32 31 31 30 29 28 27 26 24 23 23 22 22 21 21 21 20 20 20 19 19 18 18 18 18 18 18 18 18 18 18 18 18 17 17 17 17 17 17 17
31 31 31 32 32 31 31 31 32 33 32 32 31 29 28 27 26 25 24 23 22 22 21 21 21 21 20 20 19 19 19 18 18 18 18 18 18 18 18 17 18 18 17 17 17 17 17 17 17
31 31 31 30 31 31 31 31 32 32 32 32 31 30 28 27 26 25 24 23 22 22 22 21 21 21 21 20 19 19 19 18 18 18 18 18 18 18 18 18 18 17 17 17 17 17 17 17 17
31 32 30 30 30 31 30 31 32 32 31 30 30 30 28 27 27 26 24 24 23 22 22 21 21 21 21 20 20 19 19 19 18 18 18 18 18 18 18 18 18 17 17 17 17 17 17 17 17
31 32 33 32 31 31 31 32 32 32 32 31 30 30 28 28 27 26 25 24 23 22 22 22 21 21 20 20 20 19 19 19 18 18 18 18 18 18 17 17 17 17 17 17 17 17 17 17 17
32 32 31 31 29 29 30 31 32 32 32 32 31 30 29 27 27 26 25 24 23 23 22 21 21 21 20 20 20 19 19 19 19 18 18 18 18 18 18 17 17 17 17 17 17 17 17 17 17
30 30 31 31 31 30 30 31 33 32 32 32 31 30 29 28 27 26 25 24 23 23 22 21 21 21 20 20 20 19 19 19 18 18 18 18 18 18 17 17 17 17 17 17 17 17 17 17 17
31 31 31 30 29 30 31 32 33 32 32 31 31 29 28 28 27 26 25 24 23 23 22 22 21 21 20 20 20 20 19 19 18 18 18 18 18 18 17 17 17 17 17 17 17 17 17 16 16
Wind_Speed
10 9 6 5 2 10 15 12 10 9 7 8 7 6 7 8 7 10 11 13 13 13 14 14 12 12 12 13 13 13 13 13 13 12 12 12 12 12 12 12 11 12 12 12 12 12 13 13 14
7 6 5 2 7 13 14 11 11 10 8 8 7 7 9 9 9 11 12 12 13 13 14 13 14 12 12 12 13 13 13 12 12 12 12 12 12 12 11 11 11 11 11 12 12 12 13 14 14
6 6 3 5 13 14 13 11 11 9 7 5 6 7 7 8 9 9 12 14 13 12 13 14 13 12 12 12 12 12 12 12 11 11 11 11 11 11 11 11 11 11 11 11 12 12 13 13 13
5 4 1 9 15 14 11 10 9 9 8 6 8 9 8 7 6 11 15 14 13 13 13 15 12 12 12 11 11 11 11 11 10 10 10 11 10 11 11 10 10 11 11 11 12 12 13 13 13
5 1 7 13 15 12 10 8 6 7 6 6 7 10 9 7 11 15 14 13 13 12 13 15 12 12 11 11 11 11 10 10 9 9 10 10 10 11 10 10 10 10 11 11 12 12 12 12 12
2 2 9 13 13 10 8 6 6 8 9 9 9 11 8 8 12 13 13 12 12 11 12 15 13 11 11 10 10 10 10 9 9 8 9 10 10 10 10 10 10 11 11 11 11 11 11 12 11
3 7 11 12 11 9 7 5 6 7 9 8 7 9 9 11 12 12 12 11 11 11 11 12 13 12 11 10 9 9 9 9 8 8 9 9 9 10 10 10 10 11 10 10 10 11 11 11 11
3 3 11 11 10 10 6 5 5 6 8 8 5 6 10 13 13 12 11 11 9 9 9 9 9 10 10 11 10 9 8 8 8 8 8 9 10 10 10 11 10 10 10 10 10 9 10 11 10
2 5 10 10 8 7 6 6 5 6 9 6 4 6 13 18 15 13 12 11 10 8 7 8 9 8 8 9 10 9 9 8 8 8 8 7 8 9 9 10 10 9 9 10 9 9 9 10 11
2 8 10 7 6 5 5 5 6 6 7 8 9 12 16 17 16 15 13 12 11 10 9 7 7 7 7 6 8 7 7 8 6 6 7 6 6 5 7 11 8 8 9 9 9 8 9 8 9
4 7 6 5 5 4 5 5 5 5 5 7 12 16 17 17 15 13 12 11 11 10 9 8 7 6 6 5 5 5 5 5 6 6 5 5 5 6 6 7 8 8 9 7 9 9 6 5 5
3 5 4 3 3 3 4 5 5 3 6 7 12 17 17 16 14 13 11 10 10 9 9 8 8 7 5 4 5 5 5 5 5 6 5 5 4 4 4 4 5 6 5 5 5 5 4 4 5
2 3 3 3 3 3 4 4 4 5 7 10 14 16 16 15 13 11 10 9 9 9 9 9 8 7 6 5 4 5 4 4 5 5 5 5 4 4 4 3 3 4 4 5 4 4 4 4 5
2 2 2 3 3 4 4 5 4 6 9 12 14 15 15 14 13 12 11 10 10 10 10 9 9 8 7 5 4 3 4 4 4 5 5 5 4 4 3 4 3 3 4 4 4 4 4 4 4
2 2 3 3 2 3 4 5 4 8 10 11 13 13 13 13 13 12 11 11 10 10 10 10 9 9 8 7 6 5 5 5 5 5 6 5 5 4 4 3 4 4 4 5 4 4 4 4 4
5 5 3 3 2 3 5 3 7 9 11 11 12 12 12 12 12 11 11 10 10 10 10 10 9 9 9 7 6 5 5 4 5 5 5 6 5 5 5 4 4 4 5 5 4 4 4 3 4
7 4 2 3 3 3 5 2 8 9 10 11 11 12 11 12 12 11 11 10 10 10 10 10 9 9 9 7 6 6 5 5 5 5 6 6 7 6 6 4 3 5 5 5 5 5 4 4 3
4 3 3 2 2 4 5 2 6 8 10 10 11 11 11 12 12 11 11 10 10 10 10 10 10 9 8 7 7 6 5 5 6 6 6 7 7 7 6 6 5 6 5 5 4 4 4 3 4
4 4 3 1 1 4 5 4 4 8 10 10 10 11 12 12 11 11 11 10 10 10 10 11 10 9 8 7 8 7 6 6 6 6 7 8 8 8 7 6 5 6 5 5 6 5 6 5 4
6 6 5 3 1 3 3 4 4 7 10 10 11 11 12 12 11 11 11 11 11 11 11 11 11 11 10 8 7 5 5 5 6 5 6 8 8 8 8 7 6 6 6 6 6 6 6 5 5
8 7 4 3 3 5 5 6 6 6 8 9 11 11 11 12 12 12 12 11 11 11 11 10 11 11 11 9 7 6 5 5 5 6 6 7 8 9 8 8 7 6 7 6 7 7 8 6 5
8 4 3 4 6 3 4 4 4 7 8 10 11 12 13 12 12 12 12 11 11 11 11 11 10 10 10 10 9 9 7 6 6 5 5 6 7 8 8 8 8 7 7 6 8 8 7 6 6
4 3 4 5 6 6 5 7 2 6 7 9 10 12 12 13 13 13 12 11 10 10 10 10 10 10 10 10 9 9 8 6 5 5 5 6 6 7 8 8 7 7 7 8 8 6 8 7 7
7 6 5 6 8 9 5 7 3 4 4 5 7 9 11 12 13 12 11 10 9 9 9 10 10 10 10 10 10 10 8 7 6 6 5 5 5 5 7 8 7 7 7 7 8 7 9 8 8
10 10 8 8 8 7 3 6 3 1 1 3 5 8 10 12 12 12 12 12 10 10 10 10 10 10 10 10 10 9 8 7 7 7 6 6 5 5 5 6 6 6 7 8 7 8 8 8 8
14 14 10 8 7 5 6 6 2 1 1 3 5 8 10 12 12 12 13 12 11 11 10 10 10 9 9 9 8 8 7 6 5 6 5 5 5 4 4 5 6 7 7 8 7 7 8 7 8
13 14 11 9 8 7 5 4 4 4 4 6 7 9 11 12 12 12 12 12 11 10 10 10 9 9 9 9 8 7 7 6 5 5 5 5 5 4 5 5 6 7 7 8 8 7 8 7 8
9 10 8 10 9 10 8 9 5 5 5 7 8 9 10 11 12 12 11 11 11 10 10 9 9 9 8 8 7 6 6 6 5 5 5 5 5 5 5 6 6 7 7 6 7 7 7 7 7
10 11 10 10 10 9 8 6 3 4 3 5 7 8 10 12 12 12 11 11 11 10 10 10 9 9 8 8 7 6 6 5 5 5 5 5 5 5 6 6 6 6 6 6 5 6 6 7 7
13 15 14 12 10 10 10 5 5 2 2 2 4 7 8 10 11 12 12 12 11 11 11 10 10 9 9 8 7 7 6 6 5 5 5 5 5 5 5 5 5 5 5 5 6 7 6 7 8
Wind_Direction
177 184 212 236 140 71 66 65 69 79 76 73 73 65 65 49 48 93 119 131 133 133 131 135 129 127 121 119 119 118 117 118 119 119 120 121 119 116 115 113 114 113 112 112 113 115 118 118 118
175 191 230 250 59 71 67 65 67 68 89 100 84 80 76 68 72 110 126 132 139 136 136 134 128 127 122 120 120 119 118 118 119 121 120 120 119 119 116 115 115 114 113 114 115 115 118 118 118
186 227 278 62 59 63 69 70 80 89 97 98 90 69 66 85 104 121 132 140 141 133 130 127 132 128 124 120 118 117 118 119 119 119 121 120 120 119 117 116 114 114 114 115 117 118 120 120 121
217 225 154 67 68 64 71 80 93 100 91 89 100 91 83 84 112 127 136 144 139 136 136 130 135 130 126 123 120 119 118 117 117 117 118 121 121 121 121 116 113 112 115 118 119 120 122 122 123
246 280 78 74 70 71 72 77 82 81 87 98 102 104 95 89 116 130 141 143 138 137 133 132 134 131 128 126 125 122 118 116 117 117 118 120 121 122 120 117 116 116 117 120 120 120 121 122 123
268 41 66 71 74 76 79 86 87 85 97 104 109 109 98 120 132 137 141 142 137 136 134 130 135 134 132 132 130 126 123 120 117 116 116 119 120 120 122 121 120 118 118 121 122 122 121 123 126
8 55 68 71 77 79 74 82 88 98 103 104 115 111 122 137 139 142 141 141 140 140 138 141 145 143 140 133 130 129 125 124 123 121 119 120 119 118 121 122 121 120 122 123 123 122 123 126 129
334 69 73 68 66 73 90 96 90 97 98 111 120 123 142 147 146 144 144 144 141 142 141 141 144 140 148 143 137 131 130 131 129 126 125 127 128 126 129 133 123 123 125 124 124 124 127 129 131
300 63 65 58 57 75 105 113 104 110 119 118 102 103 130 142 148 151 152 151 151 152 154 152 147 148 149 145 141 147 145 146 150 142 138 154 143 137 143 118 124 126 126 125 126 128 133 138 139
357 62 62 51 56 79 108 114 128 138 133 126 120 116 132 147 157 162 164 164 164 164 163 159 157 158 157 150 147 157 158 154 161 143 149 146 128 126 122 123 131 131 131 133 131 136 152 167 148
35 56 62 59 61 81 114 122 135 141 126 141 148 147 151 158 166 170 170 171 168 166 168 168 166 169 166 160 160 159 153 152 156 150 150 141 147 145 143 143 148 150 156 150 146 166 167 156 143
58 59 53 58 73 96 109 121 127 120 82 117 145 152 158 166 172 176 174 173 170 171 173 173 170 176 182 175 166 173 172 168 162 155 174 160 157 153 141 152 145 157 153 150 161 159 158 155 154
75 66 55 73 103 110 125 124 113 112 112 128 141 154 164 171 174 175 175 176 177 179 180 178 179 182 181 185 199 182 186 181 170 171 172 176 170 164 154 154 164 171 157 164 173 164 160 165 174
65 90 96 103 110 134 138 128 137 121 132 142 152 162 170 172 174 175 180 184 187 187 186 184 187 189 189 192 199 196 198 190 190 183 176 188 181 167 174 174 178 182 182 174 176 171 176 188 180
193 193 155 128 146 146 175 152 143 138 149 156 163 169 172 177 181 186 188 191 193 191 190 191 191 191 196 201 201 198 208 195 196 189 187 198 200 182 196 193 191 188 180 174 192 188 189 194 190
222 226 205 137 176 182 239 122 131 152 163 168 171 173 178 184 191 193 195 196 197 194 192 196 197 191 195 201 205 205 208 203 205 201 200 204 211 208 213 215 205 186 196 194 188 205 199 196 204
220 230 213 149 179 216 240 140 136 164 176 176 178 180 183 186 195 195 197 196 198 196 195 195 199 198 198 197 207 215 210 217 222 217 215 208 215 215 218 221 208 206 206 210 216 196 209 204 213
219 232 216 207 166 223 233 204 150 176 190 186 185 187 188 193 195 192 194 196 195 196 197 198 197 201 200 201 207 216 218 218 220 221 219 222 224 222 225 221 212 221 214 211 224 215 218 228 227
257 248 231 171 137 235 235 230 188 183 195 193 191 193 194 197 189 186 189 195 195 196 198 200 203 198 201 206 210 209 216 221 221 224 221 223 230 227 223 234 215 226 223 219 216 217 212 217 218
227 230 210 172 144 249 251 239 203 194 202 203 198 195 195 191 185 184 189 193 196 197 200 201 204 204 204 205 212 216 222 230 228 232 225 226 228 230 225 227 231 223 223 222 222 219 229 223 210
221 235 222 206 189 211 257 226 200 192 200 205 208 204 198 193 188 184 190 193 196 199 200 203 204 204 206 205 208 212 216 230 227 225 227 228 228 228 233 232 236 233 228 223 225 223 228 231 227
216 215 225 217 235 231 265 278 180 186 197 202 205 205 203 197 192 188 189 191 196 199 198 201 201 203 204 204 213 218 225 231 235 231 229 231 234 236 232 233 234 236 237 231 232 225 229 235 238
211 158 201 228 247 259 242 275 195 180 206 207 203 202 201 197 193 191 191 191 194 195 194 194 196 202 203 205 211 220 232 237 237 234 234 237 234 237 239 235 234 233 238 237 239 238 234 235 241
163 166 182 228 246 248 253 269 245 190 212 202 190 191 194 193 191 188 188 187 190 190 191 194 193 198 201 204 210 221 232 239 243 239 237 233 228 229 234 235 233 236 240 240 241 243 239 238 243
199 210 219 226 229 239 184 253 260 88 236 229 200 182 180 184 186 185 186 186 189 190 190 191 191 195 198 201 208 219 229 234 236 240 229 234 238 235 234 240 238 242 243 245 246 244 248 241 241
211 224 237 249 245 218 186 240 225 135 211 214 188 169 169 176 180 183 185 185 186 186 187 189 189 192 193 199 204 216 222 228 231 231 242 240 245 248 253 246 243 245 247 247 243 244 241 238 239
209 225 241 249 261 263 230 231 225 180 184 175 171 165 170 174 175 178 179 180 182 184 186 187 186 188 192 197 196 206 212 224 231 231 233 238 241 245 243 245 246 250 252 253 248 245 243 239 238
237 220 219 238 242 247 234 233 223 184 183 174 174 173 172 172 175 175 175 176 177 179 179 182 183 185 188 191 197 196 201 209 221 233 235 243 247 248 250 251 251 254 257 256 250 243 238 238 238
194 209 223 234 244 250 242 222 182 198 191 190 184 177 177 178 177 176 174 173 172 173 173 175 177 180 183 187 191 196 199 203 211 219 228 233 240 240 242 248 254 259 262 260 255 254 247 242 240
220 218 214 224 228 242 260 235 132 192 212 208 194 176 179 181 179 177 174 172 174 175 174 174 176 179 182 181 185 192 198 205 213 214 222 229 236 241 243 248 253 260 265 262 257 258 253 250 246
Height
1506 1505 1506 1508 1500 1502 1511 1511 1508 1511 1515 1519 1521 1521 1521 1525 1527 1538 1543 1543 1546 1548 1548 1548 1549 1551 1552 1552 1553 1554 1555 1556 1557 1558 1559 1560 1560 1561 1562 1563 1563 1564 1565 1565 1566 1567 1567 1568 1569
1508 1507 1509 1504 1499 1513 1518 1512 1513 1516 1520 1522 1524 1525 1526 1531 1535 1539 1542 1545 1548 1550 1551 1551 1551 1552 1553 1554 1555 1556 1557 1558 1559 1560 1560 1561 1562 1563 1564 1564 1565 1566 1566 1567 1568 1568 1569 1570 1571
1509 1509 1508 1499 1505 1514 1519 1514 1517 1520 1522 1523 1525 1528 1531 1536 1540 1542 1544 1547 1550 1552 1553 1552 1553 1554 1555 1556 1557 1558 1559 1560 1561 1562 1562 1563 1564 1565 1565 1566 1567 1567 1568 1569 1569 1570 1571 1571 1572
1511 1511 1506 1502 1512 1513 1514 1515 1518 1520 1523 1525 1526 1531 1536 1541 1542 1544 1546 1549 1552 1553 1555 1554 1555 1556 1557 1558 1559 1560 1561 1562 1563 1563 1564 1565 1565 1566 1567 1568 1568 1569 1569 1570 1571 1571 1572 1573 1574
1512 1506 1501 1508 1513 1515 1516 1519 1520 1520 1523 1526 1528 1533 1539 1543 1545 1546 1548 1552 1554 1556 1557 1556 1557 1558 1559 1560 1561 1562 1562 1563 1564 1565 1566 1566 1567 1568 1568 1569 1569 1570 1571 1571 1572 1573 1574 1575 1576
1510 1502 1506 1515 1516 1516 1518 1521 1521 1523 1526 1529 1531 1535 1542 1545 1547 1549 1551 1554 1556 1557 1559 1558 1558 1559 1561 1562 1563 1563 1564 1565 1565 1566 1567 1568 1568 1569 1569 1570 1571 1572 1572 1573 1574 1575 1575 1576 1577
1510 1503 1509 1512 1516 1517 1519 1521 1522 1524 1527 1531 1533 1536 1543 1547 1549 1551 1553 1555 1557 1559 1560 1561 1561 1561 1562 1563 1564 1565 1565 1566 1567 1567 1568 1569 1570 1570 1571 1572 1572 1573 1574 1575 1575 1576 1577 1578 1579
1512 1504 1508 1511 1515 1518 1520 1523 1525 1526 1530 1535 1536 1537 1542 1547 1549 1552 1554 1556 1558 1560 1561 1562 1564 1564 1565 1565 1565 1566 1566 1567 1568 1569 1569 1570 1571 1571 1572 1573 1574 1575 1575 1576 1577 1578 1578 1579 1580
1513 1506 1513 1514 1516 1518 1521 1523 1527 1529 1532 1535 1537 1538 1542 1546 1549 1552 1555 1557 1558 1560 1562 1563 1564 1565 1566 1568 1566 1567 1567 1568 1569 1570 1570 1571 1573 1574 1574 1575 1575 1576 1577 1577 1578 1579 1580 1581 1581
1511 1510 1516 1515 1515 1517 1521 1523 1527 1529 1531 1535 1539 1542 1544 1547 1550 1553 1555 1557 1559 1560 1562 1563 1565 1566 1567 1568 1568 1569 1570 1570 1571 1572 1572 1573 1574 1575 1576 1575 1576 1577 1578 1578 1579 1580 1581 1582 1584
1513 1513 1515 1517 1518 1520 1521 1524 1526 1527 1529 1534 1538 1542 1545 1548 1551 1553 1556 1558 1560 1561 1562 1563 1565 1566 1567 1568 1569 1570 1571 1571 1572 1572 1573 1574 1575 1576 1577 1577 1578 1578 1579 1580 1580 1581 1583 1585 1585
1516 1517 1518 1518 1520 1521 1522 1524 1526 1528 1531 1535 1538 1542 1545 1548 1551 1554 1556 1558 1560 1561 1562 1563 1564 1565 1566 1568 1569 1570 1571 1572 1573 1572 1573 1575 1576 1576 1577 1578 1579 1579 1580 1581 1582 1583 1584 1585 1585
1517 1518 1520 1520 1521 1522 1524 1525 1527 1530 1534 1536 1539 1542 1545 1548 1551 1554 1556 1558 1559 1560 1562 1563 1563 1564 1565 1566 1568 1570 1571 1572 1573 1573 1573 1574 1576 1577 1578 1578 1578 1580 1581 1581 1582 1583 1583 1584 1585
1519 1519 1520 1520 1521 1523 1524 1525 1528 1531 1535 1537 1540 1542 1545 1548 1551 1553 1555 1557 1558 1559 1561 1562 1563 1564 1565 1566 1567 1569 1571 1571 1573 1574 1574 1575 1576 1577 1578 1578 1578 1580 1581 1582 1582 1583 1583 1584 1585
1520 1518 1518 1519 1521 1522 1523 1524 1527 1532 1535 1537 1540 1543 1545 1548 1551 1552 1554 1556 1557 1558 1560 1561 1563 1564 1565 1566 1568 1569 1570 1572 1573 1574 1574 1575 1576 1576 1577 1579 1579 1580 1580 1581 1581 1582 1584 1584 1585
1516 1515 1518 1518 1520 1522 1523 1525 1527 1531 1534 1536 1539 1542 1545 1547 1550 1552 1553 1555 1556 1557 1559 1560 1562 1563 1564 1566 1567 1569 1570 1571 1572 1573 1574 1574 1575 1576 1577 1578 1579 1579 1580 1581 1581 1582 1583 1584 1584
1514 1517 1518 1518 1519 1519 1519 1521 1526 1530 1533 1535 1538 1541 1543 1546 1549 1550 1552 1553 1555 1556 1558 1559 1561 1562 1564 1565 1566 1567 1568 1569 1571 1572 1573 1574 1574 1575 1576 1577 1578 1578 1579 1580 1581 1582 1582 1583 1583
1519 1517 1518 1518 1516 1517 1518 1519 1523 1528 1530 1533 1536 1539 1541 1544 1546 1548 1550 1552 1553 1555 1556 1558 1559 1561 1562 1563 1564 1566 1567 1568 1569 1570 1571 1572 1573 1574 1575 1576 1576 1577 1578 1578 1579 1580 1580 1581 1581
1514 1516 1518 1517 1516 1517 1517 1518 1520 1525 1528 1530 1533 1536 1539 1541 1544 1547 1548 1550 1552 1553 1554 1556 1558 1559 1560 1561 1563 1564 1565 1566 1567 1568 1569 1570 1571 1572 1573 1574 1575 1575 1576 1577 1578 1578 1579 1580 1580
1516 1518 1517 1517 1517 1517 1516 1517 1517 1521 1524 1527 1530 1533 1536 1539 1542 1544 1546 1548 1550 1551 1553 1554 1555 1557 1558 1559 1560 1561 1563 1564 1565 1566 1566 1568 1569 1570 1572 1572 1573 1574 1574 1575 1575 1576 1577 1578 1578
1516 1515 1515 1517 1517 1515 1516 1517 1516 1517 1522 1525 1527 1530 1533 1536 1539 1542 1544 1546 1548 1549 1550 1552 1553 1555 1556 1557 1559 1559 1560 1561 1563 1563 1564 1565 1566 1567 1568 1569 1571 1571 1572 1573 1573 1574 1574 1575 1576
1517 1512 1514 1516 1518 1516 1518 1522 1513 1512 1517 1520 1523 1526 1529 1533 1536 1539 1541 1543 1545 1547 1549 1550 1551 1553 1554 1555 1556 1558 1559 1559 1560 1561 1562 1562 1563 1564 1565 1567 1567 1568 1569 1570 1570 1571 1572 1572 1573
1512 1513 1514 1515 1517 1519 1516 1521 1512 1509 1513 1513 1517 1521 1525 1529 1533 1536 1538 1541 1543 1545 1546 1548 1549 1550 1552 1553 1554 1555 1557 1557 1558 1558 1559 1559 1560 1561 1562 1563 1564 1565 1566 1566 1567 1568 1568 1569 1570
1514 1515 1517 1515 1514 1529 1520 1523 1518 1505 1507 1508 1512 1517 1522 1526 1530 1533 1536 1539 1540 1543 1544 1546 1546 1548 1549 1550 1552 1553 1554 1555 1555 1556 1556 1557 1558 1559 1559 1560 1561 1561 1562 1563 1563 1564 1564 1565 1566
1512 1518 1528 1531 1529 1526 1517 1522 1514 1503 1504 1507 1509 1514 1519 1523 1527 1530 1533 1536 1538 1540 1542 1543 1544 1546 1547 1548 1549 1551 1552 1552 1553 1553 1554 1555 1556 1557 1557 1558 1558 1558 1559 1559 1559 1559 1560 1561 1561
1509 1510 1527 1536 1531 1520 1520 1520 1506 1502 1505 1508 1509 1512 1517 1520 1524 1527 1531 1533 1536 1538 1540 1541 1542 1544 1545 1546 1547 1549 1550 1551 1552 1551 1552 1553 1553 1554 1554 1554 1555 1555 1555 1555 1555 1555 1556 1556 1557
1507 1507 1500 1513 1520 1524 1515 1510 1502 1501 1503 1505 1508 1511 1515 1518 1522 1525 1528 1531 1534 1536 1538 1540 1541 1542 1544 1545 1546 1547 1548 1548 1549 1549 1549 1550 1551 1551 1551 1551 1552 1552 1552 1551 1551 1551 1551 1552 1553
1501 1500 1508 1514 1531 1534 1522 1516 1507 1501 1501 1502 1506 1509 1513 1517 1520 1523 1526 1529 1532 1534 1536 1538 1539 1541 1542 1543 1545 1546 1546 1546 1547 1548 1548 1548 1548 1549 1549 1549 1549 1549 1548 1548 1548 1548 1548 1548 1548
1506 1507 1505 1508 1510 1524 1527 1515 1493 1497 1498 1500 1504 1508 1511 1514 1518 1521 1524 1527 1530 1532 1534 1536 1537 1539 1540 1542 1543 1544 1545 1545 1545 1546 1546 1546 1546 1546 1546 1546 1546 1546 1545 1545 1544 1545 1544 1544 1545
1495 1497 1503 1515 1518 1515 1515 1509 1491 1495 1497 1500 1502 1507 1510 1513 1516 1519 1522 1525 1528 1530 1533 1534 1536 1537 1539 1540 1541 1542 1543 1543 1544 1544 1544 1544 1544 1544 1544 1543 1543 1543 1542 1542 1541 1541 1541 1541 1541